User: anonymous   Login
Location: Quaker Farms
(41.4276°N, 73.1557°W)
Time: 15:11:48
(UTC+00:00)
Language:

A-11 Canister half - Orbit

View from above orbital plane
View from above orbital plane
View from above satellite
View from above satellite

Ground track
Ground track

The orbit data is extracted from the following two-line orbital elements,

1 00051U 60009C   21172.59821787 -.00000079  00000-0  51951-4 0  9993
2 00051  47.2134 285.3806 0108585 180.5532 179.5150 12.18276998709098
Epoch (UTC): 21 June 2021 14:21:26
Eccentricity: 0.0108585
inclination: 47.2134°
perigee height: 1513 km
apogee height: 1686 km
right ascension of ascending node: 285.3806°
argument of perigee: 180.5532°
revolutions per day: 12.18276998
mean anomaly at epoch: 179.5150°
orbit number at epoch: 70909

The dashed part of the orbit path shows where the satellite is in the earth's shadow,  

DLR